QPF
0.00 0.00 0.00 0.00 0.00 0.00 0.00 0.00 0.00 0.00 0.00 0.00 0.00 0.00 0.00 0.00 0.00 0.00 0.00 0.01 0.01 0.01 0.02 0.02 0.03 0.04 0.05 0.07 0.07 0.09 0.08 0.09 0.08 0.07 0.08 0.08 0.09 0.11 0.09 0.08 0.11 0.11 0.11
0.00 0.00 0.00 0.00 0.00 0.00 0.00 0.00 0.00 0.00 0.00 0.00 0.00 0.00 0.00 0.00 0.00 0.00 0.00 0.00 0.00 0.01 0.02 0.03 0.04 0.05 0.05 0.05 0.05 0.07 0.08 0.07 0.08 0.08 0.09 0.08 0.10 0.08 0.06 0.07 0.09 0.10 0.12
0.00 0.00 0.00 0.00 0.00 0.00 0.00 0.00 0.00 0.00 0.00 0.00 0.00 0.00 0.00 0.00 0.00 0.00 0.00 0.00 0.01 0.01 0.02 0.03 0.04 0.04 0.04 0.04 0.05 0.06 0.07 0.08 0.09 0.08 0.09 0.09 0.10 0.10 0.07 0.05 0.07 0.09 0.11
0.00 0.00 0.00 0.00 0.00 0.00 0.00 0.00 0.00 0.00 0.00 0.00 0.00 0.00 0.00 0.00 0.00 0.00 0.00 0.00 0.01 0.02 0.02 0.02 0.02 0.02 0.03 0.03 0.03 0.04 0.05 0.07 0.08 0.08 0.09 0.08 0.09 0.10 0.11 0.08 0.07 0.09 0.10
0.00 0.00 0.00 0.00 0.00 0.00 0.00 0.00 0.00 0.00 0.00 0.00 0.00 0.00 0.00 0.00 0.00 0.00 0.00 0.00 0.01 0.02 0.01 0.02 0.02 0.03 0.03 0.03 0.02 0.03 0.03 0.05 0.08 0.09 0.07 0.07 0.07 0.07 0.10 0.12 0.11 0.09 0.07
0.00 0.00 0.00 0.00 0.00 0.00 0.00 0.00 0.00 0.00 0.00 0.00 0.00 0.00 0.00 0.00 0.00 0.00 0.00 0.00 0.01 0.01 0.00 0.01 0.03 0.03 0.03 0.03 0.02 0.02 0.03 0.04 0.06 0.08 0.07 0.07 0.07 0.08 0.09 0.11 0.12 0.11 0.08
0.00 0.00 0.00 0.00 0.00 0.00 0.00 0.00 0.00 0.00 0.00 0.00 0.00 0.00 0.00 0.00 0.00 0.00 0.00 0.00 0.01 0.00 0.00 0.00 0.02 0.02 0.02 0.01 0.01 0.01 0.02 0.02 0.04 0.05 0.06 0.07 0.07 0.07 0.07 0.08 0.10 0.11 0.09
0.00 0.00 0.00 0.00 0.00 0.00 0.00 0.00 0.00 0.00 0.00 0.00 0.00 0.00 0.00 0.00 0.00 0.00 0.00 0.00 0.01 0.00 0.00 0.00 0.01 0.01 0.01 0.00 0.01 0.01 0.01 0.01 0.01 0.03 0.05 0.06 0.05 0.07 0.07 0.07 0.08 0.08 0.08
0.00 0.00 0.00 0.00 0.00 0.00 0.00 0.00 0.00 0.00 0.00 0.00 0.00 0.00 0.00 0.00 0.00 0.00 0.00 0.00 0.00 0.00 0.00 0.00 0.01 0.01 0.01 0.01 0.01 0.01 0.01 0.01 0.01 0.02 0.03 0.05 0.05 0.05 0.05 0.06 0.05 0.07 0.07
0.00 0.00 0.00 0.00 0.00 0.00 0.00 0.00 0.00 0.00 0.00 0.00 0.00 0.00 0.00 0.00 0.00 0.00 0.00 0.00 0.00 0.00 0.00 0.01 0.01 0.02 0.02 0.02 0.03 0.03 0.02 0.01 0.01 0.02 0.02 0.03 0.04 0.03 0.03 0.04 0.04 0.05 0.06
0.00 0.00 0.00 0.00 0.00 0.00 0.00 0.00 0.00 0.00 0.00 0.00 0.00 0.00 0.00 0.00 0.00 0.00 0.00 0.00 0.00 0.00 0.01 0.01 0.01 0.02 0.02 0.03 0.03 0.03 0.02 0.02 0.02 0.01 0.02 0.03 0.03 0.03 0.01 0.02 0.03 0.04 0.04
0.00 0.00 0.00 0.00 0.00 0.00 0.00 0.00 0.00 0.00 0.00 0.00 0.00 0.00 0.00 0.00 0.00 0.00 0.00 0.00 0.00 0.00 0.01 0.01 0.01 0.01 0.01 0.01 0.02 0.02 0.02 0.03 0.03 0.02 0.01 0.01 0.01 0.02 0.02 0.01 0.01 0.02 0.03
0.00 0.00 0.00 0.00 0.00 0.00 0.00 0.00 0.00 0.00 0.00 0.00 0.00 0.00 0.00 0.00 0.00 0.00 0.00 0.00 0.00 0.01 0.01 0.00 0.00 0.00 0.00 0.00 0.00 0.01 0.03 0.03 0.02 0.02 0.01 0.01 0.01 0.01 0.02 0.02 0.02 0.02 0.02
0.00 0.00 0.00 0.00 0.00 0.00 0.00 0.00 0.00 0.00 0.00 0.00 0.00 0.00 0.00 0.00 0.00 0.00 0.00 0.00 0.00 0.00 0.01 0.01 0.01 0.01 0.01 0.01 0.00 0.01 0.01 0.02 0.02 0.01 0.01 0.02 0.02 0.01 0.01 0.01 0.02 0.02 0.03
0.00 0.00 0.00 0.00 0.00 0.00 0.00 0.00 0.00 0.00 0.00 0.00 0.00 0.00 0.00 0.00 0.00 0.00 0.00 0.00 0.00 0.00 0.00 0.00 0.01 0.01 0.01 0.01 0.00 0.00 0.01 0.01 0.01 0.02 0.01 0.01 0.01 0.00 0.00 0.00 0.01 0.02 0.03
0.00 0.00 0.00 0.00 0.00 0.00 0.00 0.00 0.00 0.00 0.00 0.00 0.00 0.00 0.00 0.00 0.00 0.00 0.00 0.00 0.00 0.00 0.00 0.00 0.00 0.00 0.01 0.00 0.00 0.00 0.00 0.01 0.02 0.02 0.01 0.00 0.00 0.00 0.00 0.00 0.00 0.01 0.01
0.00 0.00 0.00 0.00 0.00 0.00 0.00 0.00 0.00 0.00 0.00 0.00 0.00 0.00 0.00 0.00 0.00 0.00 0.00 0.00 0.00 0.00 0.00 0.00 0.00 0.00 0.00 0.00 0.00 0.00 0.00 0.00 0.01 0.01 0.00 0.00 0.00 0.00 0.01 0.01 0.00 0.01 0.01
0.00 0.00 0.00 0.00 0.00 0.00 0.00 0.00 0.00 0.00 0.00 0.00 0.00 0.00 0.00 0.00 0.00 0.00 0.00 0.00 0.00 0.00 0.00 0.00 0.00 0.00 0.00 0.00 0.00 0.00 0.00 0.00 0.00 0.00 0.00 0.00 0.01 0.01 0.01 0.01 0.01 0.01 0.01
0.00 0.00 0.00 0.00 0.00 0.00 0.00 0.00 0.00 0.00 0.00 0.00 0.00 0.00 0.00 0.00 0.00 0.00 0.00 0.00 0.00 0.00 0.00 0.00 0.00 0.00 0.00 0.00 0.00 0.00 0.00 0.00 0.00 0.01 0.01 0.01 0.01 0.00 0.00 0.00 0.01 0.01 0.02
0.00 0.00 0.00 0.00 0.00 0.00 0.00 0.00 0.00 0.00 0.00 0.00 0.00 0.00 0.00 0.00 0.00 0.00 0.00 0.00 0.00 0.00 0.00 0.00 0.00 0.00 0.00 0.00 0.00 0.00 0.01 0.01 0.01 0.01 0.01 0.00 0.00 0.00 0.00 0.00 0.01 0.02 0.02
0.00 0.00 0.00 0.00 0.00 0.00 0.00 0.00 0.00 0.00 0.00 0.00 0.00 0.00 0.00 0.00 0.00 0.00 0.00 0.00 0.00 0.00 0.00 0.00 0.00 0.00 0.00 0.00 0.00 0.00 0.00 0.01 0.01 0.01 0.01 0.00 0.00 0.00 0.00 0.00 0.01 0.02 0.02
0.00 0.00 0.00 0.00 0.00 0.00 0.00 0.00 0.00 0.00 0.00 0.00 0.00 0.00 0.00 0.00 0.00 0.00 0.00 0.00 0.00 0.00 0.00 0.00 0.00 0.00 0.00 0.00 0.00 0.00 0.00 0.00 0.00 0.01 0.01 0.00 0.00 0.00 0.00 0.00 0.00 0.00 0.01
0.00 0.00 0.00 0.00 0.00 0.00 0.00 0.00 0.00 0.00 0.00 0.00 0.00 0.00 0.00 0.00 0.00 0.00 0.00 0.00 0.00 0.00 0.00 0.00 0.00 0.00 0.00 0.00 0.00 0.00 0.00 0.00 0.00 0.00 0.00 0.00 0.00 0.00 0.00 0.00 0.00 0.00 0.01
0.00 0.00 0.00 0.00 0.00 0.00 0.00 0.00 0.00 0.00 0.00 0.00 0.00 0.00 0.00 0.00 0.00 0.00 0.00 0.00 0.00 0.00 0.00 0.00 0.00 0.00 0.00 0.00 0.00 0.00 0.00 0.00 0.00 0.00 0.00 0.00 0.00 0.00 0.00 0.00 0.00 0.01 0.01
0.00 0.00 0.00 0.00 0.00 0.00 0.00 0.00 0.00 0.00 0.00 0.00 0.00 0.00 0.00 0.00 0.00 0.00 0.00 0.00 0.00 0.00 0.00 0.00 0.00 0.00 0.00 0.00 0.00 0.00 0.00 0.00 0.00 0.00 0.00 0.00 0.00 0.01 0.01 0.01 0.01 0.01 0.01
0.00 0.00 0.00 0.00 0.00 0.00 0.00 0.00 0.00 0.00 0.00 0.00 0.00 0.00 0.00 0.00 0.00 0.00 0.00 0.00 0.00 0.00 0.00 0.00 0.00 0.00 0.00 0.00 0.00 0.00 0.00 0.00 0.00 0.00 0.00 0.00 0.00 0.01 0.01 0.01 0.01 0.01 0.00
MSLP
1007.95 1008.33 1008.74 1009.15 1009.54 1009.92 1010.30 1010.68 1011.06 1011.44 1011.81 1012.16 1012.45 1012.67 1012.82 1012.88 1012.88 1012.83 1012.78 1012.74 1012.73 1012.77 1012.85 1012.96 1013.07 1013.15 1013.18 1013.15 1013.04 1012.86 1012.64 1012.39 1012.15 1011.92 1011.71 1011.54 1011.38 1011.23 1011.09 1010.94 1010.79 1010.67 1010.58
1007.61 1008.02 1008.43 1008.84 1009.22 1009.59 1009.97 1010.37 1010.81 1011.27 1011.74 1012.19 1012.57 1012.87 1013.05 1013.12 1013.09 1013.00 1012.90 1012.81 1012.78 1012.82 1012.93 1013.07 1013.23 1013.36 1013.42 1013.41 1013.31 1013.14 1012.93 1012.69 1012.47 1012.27 1012.10 1011.97 1011.84 1011.71 1011.56 1011.38 1011.17 1010.97 1010.79
1007.25 1007.68 1008.11 1008.51 1008.89 1009.26 1009.64 1010.07 1010.56 1011.09 1011.65 1012.18 1012.65 1013.00 1013.22 1013.29 1013.25 1013.13 1012.98 1012.86 1012.81 1012.84 1012.96 1013.13 1013.31 1013.48 1013.57 1013.59 1013.52 1013.37 1013.18 1012.98 1012.79 1012.65 1012.54 1012.46 1012.39 1012.29 1012.14 1011.94 1011.69 1011.42 1011.15
1006.89 1007.34 1007.78 1008.19 1008.57 1008.94 1009.34 1009.79 1010.31 1010.90 1011.51 1012.11 1012.63 1013.03 1013.28 1013.37 1013.32 1013.18 1013.01 1012.87 1012.79 1012.82 1012.93 1013.11 1013.32 1013.50 1013.63 1013.67 1013.62 1013.51 1013.36 1013.21 1013.09 1013.01 1012.98 1012.97 1012.95 1012.89 1012.76 1012.56 1012.28 1011.95 1011.61
1006.53 1006.99 1007.46 1007.89 1008.28 1008.67 1009.07 1009.53 1010.07 1010.68 1011.32 1011.95 1012.50 1012.93 1013.21 1013.31 1013.27 1013.13 1012.95 1012.80 1012.72 1012.74 1012.85 1013.04 1013.25 1013.45 1013.59 1013.65 1013.64 1013.57 1013.47 1013.38 1013.33 1013.32 1013.36 1013.42 1013.46 1013.45 1013.35 1013.16 1012.87 1012.51 1012.12
1006.20 1006.68 1007.16 1007.62 1008.04 1008.44 1008.85 1009.31 1009.84 1010.44 1011.07 1011.69 1012.24 1012.68 1012.96 1013.09 1013.07 1012.95 1012.79 1012.65 1012.58 1012.61 1012.72 1012.91 1013.12 1013.32 1013.48 1013.56 1013.58 1013.55 1013.50 1013.47 1013.48 1013.54 1013.64 1013.76 1013.86 1013.90 1013.84 1013.66 1013.38 1013.01 1012.60
1005.92 1006.41 1006.92 1007.41 1007.86 1008.28 1008.69 1009.13 1009.63 1010.18 1010.76 1011.34 1011.86 1012.28 1012.57 1012.71 1012.72 1012.64 1012.53 1012.43 1012.39 1012.43 1012.55 1012.74 1012.95 1013.15 1013.31 1013.41 1013.46 1013.46 1013.45 1013.47 1013.53 1013.64 1013.79 1013.96 1014.10 1014.18 1014.15 1014.01 1013.75 1013.40 1012.99
1005.69 1006.19 1006.73 1007.26 1007.73 1008.16 1008.57 1008.98 1009.42 1009.90 1010.41 1010.92 1011.38 1011.77 1012.05 1012.20 1012.25 1012.23 1012.17 1012.13 1012.14 1012.21 1012.36 1012.55 1012.77 1012.97 1013.13 1013.24 1013.29 1013.32 1013.34 1013.39 1013.48 1013.62 1013.80 1013.99 1014.16 1014.27 1014.28 1014.18 1013.95 1013.64 1013.25
1005.52 1006.03 1006.58 1007.13 1007.63 1008.07 1008.47 1008.84 1009.22 1009.62 1010.04 1010.46 1010.86 1011.20 1011.46 1011.63 1011.73 1011.76 1011.78 1011.80 1011.87 1011.99 1012.16 1012.37 1012.58 1012.78 1012.94 1013.05 1013.12 1013.15 1013.18 1013.24 1013.34 1013.48 1013.67 1013.87 1014.05 1014.17 1014.22 1014.15 1013.98 1013.72 1013.38
1005.37 1005.86 1006.43 1006.99 1007.51 1007.96 1008.34 1008.68 1009.01 1009.33 1009.67 1010.01 1010.33 1010.63 1010.87 1011.06 1011.19 1011.29 1011.37 1011.47 1011.59 1011.76 1011.96 1012.18 1012.40 1012.60 1012.76 1012.86 1012.93 1012.96 1012.99 1013.05 1013.13 1013.27 1013.43 1013.62 1013.80 1013.93 1014.00 1013.98 1013.87 1013.67 1013.40
1005.17 1005.66 1006.22 1006.78 1007.30 1007.75 1008.13 1008.45 1008.74 1009.02 1009.29 1009.57 1009.85 1010.11 1010.34 1010.54 1010.71 1010.86 1011.00 1011.15 1011.33 1011.53 1011.76 1011.99 1012.22 1012.41 1012.57 1012.67 1012.73 1012.76 1012.78 1012.82 1012.89 1012.99 1013.13 1013.29 1013.45 1013.59 1013.68 1013.70 1013.65 1013.53 1013.34
1004.90 1005.35 1005.88 1006.43 1006.94 1007.40 1007.78 1008.11 1008.39 1008.65 1008.91 1009.16 1009.42 1009.66 1009.90 1010.11 1010.31 1010.49 1010.68 1010.87 1011.08 1011.30 1011.54 1011.78 1012.01 1012.20 1012.35 1012.45 1012.51 1012.54 1012.55 1012.57 1012.62 1012.69 1012.80 1012.93 1013.08 1013.21 1013.32 1013.38 1013.39 1013.34 1013.24
1004.52 1004.91 1005.38 1005.89 1006.39 1006.84 1007.24 1007.59 1007.90 1008.19 1008.47 1008.75 1009.02 1009.28 1009.53 1009.76 1009.98 1010.19 1010.39 1010.59 1010.81 1011.04 1011.28 1011.52 1011.74 1011.93 1012.08 1012.18 1012.24 1012.27 1012.29 1012.30 1012.33 1012.38 1012.46 1012.57 1012.70 1012.83 1012.96 1013.06 1013.12 1013.14 1013.12
1004.03 1004.33 1004.72 1005.16 1005.62 1006.06 1006.48 1006.88 1007.25 1007.61 1007.96 1008.29 1008.62 1008.92 1009.21 1009.46 1009.69 1009.90 1010.11 1010.31 1010.52 1010.73 1010.96 1011.18 1011.39 1011.58 1011.73 1011.84 1011.91 1011.95 1011.98 1011.99 1012.01 1012.05 1012.12 1012.21 1012.33 1012.46 1012.60 1012.73 1012.84 1012.92 1012.97
1003.46 1003.64 1003.92 1004.27 1004.67 1005.09 1005.53 1005.98 1006.43 1006.88 1007.33 1007.76 1008.16 1008.53 1008.86 1009.15 1009.39 1009.61 1009.80 1009.98 1010.16 1010.35 1010.55 1010.75 1010.95 1011.13 1011.29 1011.42 1011.51 1011.57 1011.60 1011.63 1011.65 1011.69 1011.75 1011.84 1011.95 1012.09 1012.24 1012.39 1012.54 1012.66 1012.76
1002.87 1002.92 1003.06 1003.29 1003.61 1003.99 1004.43 1004.93 1005.46 1006.02 1006.57 1007.11 1007.62 1008.07 1008.45 1008.78 1009.04 1009.25 1009.42 1009.58 1009.73 1009.89 1010.07 1010.25 1010.44 1010.62 1010.78 1010.92 1011.03 1011.10 1011.16 1011.20 1011.24 1011.28 1011.35 1011.44 1011.55 1011.69 1011.85 1012.02 1012.19 1012.35 1012.47
1002.36 1002.25 1002.23 1002.33 1002.54 1002.86 1003.29 1003.81 1004.41 1005.05 1005.71 1006.36 1006.95 1007.49 1007.94 1008.30 1008.58 1008.80 1008.97 1009.11 1009.24 1009.38 1009.54 1009.70 1009.88 1010.06 1010.22 1010.37 1010.49 1010.58 1010.65 1010.71 1010.76 1010.81 1010.89 1010.98 1011.10 1011.25 1011.42 1011.60 1011.78 1011.95 1012.10
1001.98 1001.71 1001.54 1001.48 1001.57 1001.81 1002.20 1002.72 1003.35 1004.05 1004.79 1005.51 1006.19 1006.79 1007.30 1007.72 1008.03 1008.27 1008.45 1008.59 1008.72 1008.86 1009.00 1009.16 1009.33 1009.51 1009.67 1009.82 1009.94 1010.04 1010.11 1010.17 1010.23 1010.29 1010.37 1010.47 1010.60 1010.76 1010.93 1011.12 1011.31 1011.48 1011.63
1001.77 1001.37 1001.04 1000.85 1000.81 1000.95 1001.27 1001.75 1002.37 1003.09 1003.86 1004.63 1005.36 1006.02 1006.58 1007.04 1007.40 1007.68 1007.89 1008.06 1008.22 1008.37 1008.53 1008.69 1008.87 1009.03 1009.19 1009.32 1009.43 1009.51 1009.58 1009.63 1009.67 1009.74 1009.82 1009.93 1010.07 1010.23 1010.42 1010.62 1010.81 1010.99 1011.14
1001.74 1001.23 1000.78 1000.47 1000.31 1000.34 1000.57 1000.98 1001.55 1002.24 1003.00 1003.77 1004.53 1005.22 1005.82 1006.33 1006.74 1007.07 1007.35 1007.57 1007.78 1007.97 1008.16 1008.35 1008.52 1008.69 1008.83 1008.94 1009.01 1009.07 1009.10 1009.12 1009.16 1009.21 1009.29 1009.41 1009.56 1009.74 1009.94 1010.15 1010.35 1010.52 1010.66
1001.85 1001.26 1000.74 1000.32 1000.06 999.99 1000.11 1000.43 1000.92 1001.54 1002.25 1002.99 1003.73 1004.43 1005.07 1005.62 1006.10 1006.50 1006.85 1007.16 1007.44 1007.69 1007.93 1008.15 1008.34 1008.49 1008.61 1008.69 1008.73 1008.74 1008.73 1008.72 1008.73 1008.76 1008.84 1008.96 1009.13 1009.33 1009.55 1009.77 1009.98 1010.16 1010.29
1002.02 1001.40 1000.83 1000.36 1000.02 999.85 999.87 1000.08 1000.47 1000.99 1001.62 1002.30 1003.01 1003.70 1004.35 1004.96 1005.50 1005.99 1006.43 1006.84 1007.20 1007.54 1007.84 1008.09 1008.30 1008.45 1008.55 1008.59 1008.58 1008.54 1008.49 1008.44 1008.43 1008.45 1008.53 1008.66 1008.84 1009.07 1009.31 1009.55 1009.77 1009.95 1010.08
1002.17 1001.57 1000.99 1000.48 1000.09 999.84 999.77 999.87 1000.14 1000.56 1001.09 1001.70 1002.36 1003.03 1003.70 1004.35 1004.96 1005.54 1006.08 1006.59 1007.06 1007.48 1007.84 1008.14 1008.37 1008.53 1008.61 1008.62 1008.57 1008.49 1008.40 1008.32 1008.28 1008.30 1008.38 1008.53 1008.74 1008.98 1009.25 1009.51 1009.75 1009.93 1010.05
1002.25 1001.68 1001.12 1000.60 1000.17 999.86 999.70 999.70 999.87 1000.18 1000.62 1001.15 1001.76 1002.41 1003.09 1003.77 1004.46 1005.12 1005.77 1006.38 1006.94 1007.45 1007.89 1008.24 1008.49 1008.66 1008.73 1008.72 1008.65 1008.54 1008.43 1008.34 1008.29 1008.31 1008.41 1008.58 1008.81 1009.08 1009.37 1009.65 1009.89 1010.08 1010.19
1002.21 1001.68 1001.13 1000.62 1000.16 999.81 999.58 999.50 999.57 999.78 1000.13 1000.59 1001.16 1001.79 1002.48 1003.20 1003.95 1004.70 1005.43 1006.14 1006.79 1007.38 1007.88 1008.29 1008.58 1008.76 1008.84 1008.84 1008.76 1008.65 1008.54 1008.45 1008.42 1008.46 1008.58 1008.77 1009.03 1009.32 1009.63 1009.93 1010.17 1010.35 1010.44
1002.06 1001.55 1001.01 1000.49 1000.01 999.62 999.33 999.17 999.16 999.30 999.57 999.98 1000.50 1001.13 1001.83 1002.59 1003.39 1004.21 1005.02 1005.80 1006.53 1007.19 1007.76 1008.22 1008.55 1008.77 1008.88 1008.89 1008.84 1008.76 1008.67 1008.61 1008.61 1008.68 1008.83 1009.05 1009.33 1009.64 1009.96 1010.26 1010.50 1010.66 1010.74
Thickness
5780 5779 5775 5771 5766 5762 5759 5754 5749 5746 5741 5735 5730 5726 5721 5719 5716 5712 5706 5702 5697 5693 5691 5687 5685 5683 5681 5681 5681 5683 5683 5686 5691 5691 5694 5702 5709 5713 5718 5724 5728 5732 5736
5779 5776 5773 5769 5765 5761 5757 5754 5749 5745 5740 5734 5731 5726 5722 5719 5715 5711 5706 5701 5697 5692 5689 5685 5683 5681 5680 5679 5680 5680 5680 5682 5687 5687 5686 5688 5696 5706 5714 5718 5723 5727 5732
5778 5774 5771 5767 5763 5760 5757 5754 5749 5745 5740 5735 5731 5726 5721 5717 5713 5708 5704 5701 5697 5692 5688 5685 5683 5681 5679 5677 5678 5678 5677 5677 5683 5686 5684 5682 5683 5694 5705 5712 5718 5722 5727
5781 5776 5771 5767 5763 5761 5758 5755 5749 5745 5740 5735 5728 5722 5717 5712 5710 5707 5704 5702 5698 5693 5689 5685 5683 5681 5679 5678 5677 5677 5677 5677 5677 5682 5686 5687 5689 5688 5692 5702 5711 5717 5721
5780 5776 5772 5768 5766 5762 5757 5754 5749 5744 5739 5734 5728 5722 5718 5714 5712 5708 5705 5702 5698 5695 5690 5686 5684 5681 5679 5678 5677 5676 5676 5676 5676 5677 5680 5684 5687 5690 5688 5690 5699 5708 5715
5780 5776 5773 5769 5764 5761 5756 5752 5746 5741 5738 5733 5729 5724 5719 5714 5711 5707 5703 5700 5698 5695 5692 5688 5684 5682 5679 5677 5676 5676 5676 5676 5676 5676 5678 5679 5680 5682 5685 5686 5691 5697 5706
5777 5773 5768 5764 5760 5756 5753 5749 5744 5739 5737 5733 5729 5726 5721 5717 5712 5708 5704 5700 5698 5694 5691 5688 5685 5682 5680 5678 5677 5676 5676 5676 5675 5675 5676 5678 5680 5682 5684 5684 5686 5691 5698
5776 5772 5768 5763 5759 5755 5752 5748 5744 5740 5737 5733 5731 5728 5724 5719 5715 5711 5707 5703 5699 5696 5693 5689 5687 5684 5681 5679 5677 5676 5676 5676 5675 5676 5676 5676 5678 5681 5682 5682 5682 5683 5689
5773 5771 5767 5764 5759 5755 5752 5749 5745 5741 5738 5735 5732 5729 5726 5721 5716 5713 5709 5705 5702 5698 5694 5691 5688 5686 5683 5680 5677 5675 5675 5674 5674 5674 5674 5674 5676 5678 5680 5681 5682 5679 5678
5772 5770 5767 5764 5761 5757 5754 5751 5747 5743 5740 5737 5734 5730 5726 5722 5718 5713 5710 5706 5703 5699 5695 5692 5690 5687 5684 5682 5678 5676 5675 5674 5673 5673 5672 5672 5673 5675 5677 5678 5680 5681 5679
5769 5768 5766 5765 5762 5759 5755 5751 5748 5744 5741 5738 5735 5731 5726 5723 5719 5714 5710 5707 5703 5700 5697 5694 5691 5688 5685 5682 5679 5676 5675 5673 5672 5672 5672 5671 5672 5671 5673 5675 5676 5677 5678
5771 5769 5766 5763 5760 5758 5755 5751 5749 5745 5742 5739 5735 5731 5727 5723 5719 5715 5712 5709 5705 5702 5698 5696 5692 5688 5685 5682 5679 5676 5675 5672 5670 5670 5669 5669 5670 5669 5669 5670 5671 5673 5675
5769 5767 5764 5761 5758 5756 5754 5753 5750 5747 5743 5739 5735 5731 5727 5723 5720 5716 5713 5710 5706 5703 5700 5696 5692 5688 5685 5682 5680 5677 5675 5673 5671 5670 5667 5667 5666 5665 5666 5667 5668 5669 5672
5768 5765 5761 5760 5758 5757 5755 5753 5750 5748 5744 5739 5734 5731 5728 5724 5721 5718 5714 5710 5707 5703 5700 5697 5694 5690 5686 5683 5680 5677 5675 5673 5672 5670 5668 5667 5665 5664 5663 5664 5664 5666 5666
5766 5764 5760 5759 5757 5756 5754 5753 5750 5748 5744 5738 5733 5731 5729 5726 5722 5717 5713 5710 5706 5703 5700 5697 5694 5691 5687 5683 5679 5676 5675 5672 5671 5670 5669 5667 5666 5664 5662 5661 5660 5660 5660
5764 5764 5763 5761 5758 5756 5754 5752 5749 5747 5744 5739 5734 5732 5729 5726 5721 5717 5713 5709 5706 5702 5699 5696 5693 5690 5688 5684 5681 5676 5673 5671 5670 5669 5668 5668 5665 5664 5662 5661 5660 5659 5657
5762 5763 5763 5762 5761 5760 5758 5753 5750 5747 5743 5739 5735 5732 5728 5724 5720 5717 5712 5708 5704 5701 5698 5695 5693 5690 5687 5685 5681 5677 5673 5670 5669 5669 5668 5668 5667 5664 5661 5660 5660 5659 5658
5761 5762 5763 5764 5764 5764 5761 5757 5752 5747 5742 5738 5735 5731 5727 5722 5719 5715 5711 5708 5705 5702 5698 5695 5693 5690 5688 5685 5681 5678 5673 5671 5670 5670 5669 5667 5665 5663 5660 5658 5657 5656 5657
5760 5762 5764 5765 5765 5764 5762 5757 5751 5746 5741 5737 5734 5731 5727 5722 5717 5713 5710 5707 5704 5701 5699 5696 5694 5690 5688 5685 5681 5677 5673 5671 5671 5671 5670 5668 5664 5662 5660 5656 5654 5653 5653
5757 5759 5761 5763 5761 5761 5760 5754 5748 5744 5740 5737 5735 5732 5728 5722 5717 5713 5710 5708 5704 5701 5698 5696 5694 5691 5687 5684 5680 5676 5672 5670 5670 5670 5669 5667 5663 5660 5657 5653 5650 5648 5648
5751 5753 5754 5753 5755 5757 5755 5749 5745 5742 5741 5738 5734 5730 5726 5721 5717 5713 5710 5706 5703 5699 5696 5694 5692 5690 5686 5683 5679 5674 5670 5668 5667 5666 5664 5662 5660 5657 5654 5650 5647 5645 5644
5741 5744 5744 5745 5748 5751 5748 5743 5741 5742 5740 5735 5729 5726 5723 5719 5716 5710 5706 5704 5700 5696 5693 5690 5688 5686 5684 5680 5676 5673 5669 5666 5663 5661 5660 5658 5656 5653 5650 5646 5644 5642 5641
5731 5734 5734 5735 5739 5741 5741 5736 5737 5737 5734 5729 5724 5721 5718 5715 5712 5706 5702 5699 5696 5692 5689 5687 5683 5682 5680 5676 5673 5670 5667 5664 5659 5657 5655 5653 5651 5648 5645 5642 5640 5637 5635
5719 5722 5724 5724 5727 5731 5733 5732 5732 5731 5726 5721 5718 5715 5712 5709 5706 5702 5698 5694 5690 5687 5685 5682 5679 5676 5673 5668 5665 5662 5661 5659 5655 5653 5650 5648 5645 5642 5639 5636 5633 5631 5629
5707 5710 5712 5714 5717 5721 5723 5725 5725 5723 5719 5716 5713 5710 5707 5704 5699 5694 5689 5687 5682 5681 5679 5676 5673 5669 5664 5659 5658 5655 5654 5651 5649 5647 5645 5641 5638 5634 5631 5629 5627 5624 5622
5693 5697 5700 5703 5708 5712 5714 5717 5718 5716 5713 5710 5708 5705 5701 5697 5692 5685 5677 5674 5674 5673 5672 5670 5666 5661 5657 5654 5652 5650 5648 5647 5645 5642 5638 5633 5630 5626 5623 5620 5618 5616 5613